User: anonymous   Login
Location: Unspecified
(0.0000°N, 0.0000°E)
Time: 07:12:33
(UTC+00:00)
Language:

S-NET A - Orbit

View from above orbital plane
View from above orbital plane
View from above satellite
View from above satellite

Ground track
Ground track

The orbit data is extracted from the following two-line orbital elements,

1 43188U 18014J   21024.71398255 -.00000182  00000-0 -10771-4 0  9990
2 43188  97.6868 294.8279 0010210 196.3000 163.7895 14.96954789162790
Epoch (UTC): 24 January 2021 17:08:08
Eccentricity: 0.0010210
inclination: 97.6868°
perigee height: 569 km
apogee height: 583 km
right ascension of ascending node: 294.8279°
argument of perigee: 196.3000°
revolutions per day: 14.96954789
mean anomaly at epoch: 163.7895°
orbit number at epoch: 16279

The dashed part of the orbit path shows where the satellite is in the earth's shadow,  

DLR